Location: West Cummington
(42.4920°N, 72.9680°W)
Time: 23:17:56
(UTC-04:00)

Daily predictions for brighter satellites

Satellite Brightness Start Highest point End
(mag) Time Altitude Azimuth Time Altitude Azimuth Time Altitude Azimuth
Cosmos 2123 Rocket 4.0 19:34:03 10° N 19:40:23 74° E 19:46:38 10° SSE
Cosmos 1818 3.6 19:41:15 10° NNW 19:46:44 78° NE 19:52:09 10° SE
Cosmos 1269 Rocket 4.3 19:42:23 10° N 19:47:30 48° ENE 19:52:35 10° SE
COSMOS 2487 3.2 19:45:14 10° N 19:48:32 34° ENE 19:51:50 10° SE
FREGAT/IRIS 3.2 19:45:42 10° S 19:48:44 61° W 19:51:46 10° NNW
Cosmos 1271 Rocket 4.1 19:46:51 10° SE 19:49:51 21° E 19:52:53 10° NE
Cosmos 372 Rocket 4.4 19:45:20 10° S 19:50:02 38° ESE 19:54:47 10° NE
Cosmos 1758 3.6 19:46:41 10° SSE 19:50:29 46° E 19:54:20 10° NNE
Cosmos 468 4.5 19:46:55 10° NNW 19:52:10 75° ENE 19:57:24 10° SSE
Cosmos 158 Rocket 4.4 19:47:54 10° N 19:52:49 44° ENE 19:57:49 10° SE
Lacrosse 5 2.8 19:49:26 10° WSW 19:54:22 49° NW 19:59:18 10° NE
Cosmos 1674 3.5 19:53:24 10° NNE 19:56:49 31° ENE 20:00:15 10° SE
Cosmos 1953 2.5 19:52:57 10° S 19:56:52 50° E 20:00:49 10° NNE
Cosmos 1766 4.2 19:55:32 10° SSW 19:59:19 53° W 20:03:09 10° N
Cosmos 1408 Rocket 4.1 19:55:24 10° N 19:59:37 39° ENE 20:03:47 10° SSE
Resurs 1-3 3.7 19:56:10 10° SSE 20:00:28 57° ENE 20:04:47 10° N
Helios 1B rocket 3.2 20:04:05 10° NE 20:07:44 30° E 20:11:22 10° SSE
Meteor 1-4 Rocket 2.3 20:05:29 10° S 20:08:57 78° E 20:12:26 10° NNE
Cosmos 1939 Rocket 4.3 20:07:02 15° ESE 20:09:10 21° ENE 20:12:19 10° NNE
In-Cosmos 22 4.5 20:05:11 10° NNW 20:10:28 68° W 20:15:41 10° S
Spot 2 Rocket 3.5 20:08:58 10° SSE 20:14:04 86° ENE 20:19:13 10° NNW
Cosmos 2098 Rocket 4.4 20:07:17 10° S 20:14:36 76° E 20:22:10 10° N
Timation 2 Rocket 4.0 20:08:54 10° NNW 20:15:12 68° ENE 20:21:14 10° SE
Lacrosse 4 Rocket 4.4 20:13:47 10° WNW 20:15:42 13° NW 20:17:38 10° NNW
Lacrosse 5 rocket 1.5 20:12:14 10° NW 20:16:07 51° NE 20:18:26 21° ESE
Cosmos 1459 Rocket 4.3 20:10:22 10° SSE 20:16:13 43° E 20:21:59 10° NNE
Cosmos 1447 Rocket 4.4 20:11:19 10° N 20:17:30 80° E 20:23:39 10° S
Cosmos 1076 Rocket 3.5 20:15:37 10° N 20:19:52 87° W 20:24:07 10° S
SWAS 4.4 20:16:06 10° SSW 20:20:20 66° ESE 20:24:38 10° NNE
Cosmos 1544 3.8 20:18:09 10° SSW 20:21:44 56° W 20:25:22 10° N
Cosmos 2344 4.4 20:14:55 10° SW 20:22:27 57° NW 20:31:13 10° NNE
Cosmos 1867 3.7 20:18:16 10° SW 20:23:44 83° WNW 20:29:14 10° NNE
CZ-2D R/B 3.2 20:20:28 10° SSE 20:24:20 88° W 20:28:15 10° NNW
Cosmos 2173 Rocket 4.2 20:18:29 10° SSE 20:24:23 50° E 20:30:24 10° NNE
H-2A R/B (2) 4.0 20:22:23 10° SSW 20:24:28 14° S 20:26:56 11° SE
Cosmos 1805 4.3 20:24:24 10° SSW 20:28:10 48° W 20:31:59 10° N
Cosmos 1833 Rocket 2.7 20:23:22 10° NNW 20:29:01 88° WSW 20:34:39 10° SSE
Helios 1A 2.9 20:26:16 11° SSE 20:30:12 67° ENE 20:34:24 10° N
ALOS 3.8 20:26:07 10° SSW 20:30:27 38° W 20:34:50 10° NNW
Cosmos 482 Debris 3.7 20:29:49 10° NW 20:31:14 32° N 20:31:14 32° N
Meteor 1-21 Rocket 4.4 20:25:53 10° NNW 20:31:45 81° W 20:37:40 10° S
Envisat 3.2 20:28:31 16° SE 20:32:18 49° ENE 20:37:10 10° N
Cosmos 1184 Rocket 3.6 20:31:46 10° N 20:34:52 32° ENE 20:35:04 32° E
Cosmos 2278 Rocket 4.1 20:34:42 10° WSW 20:39:45 32° NW 20:44:51 10° N
ATLAS 5 CENTAUR R/B 1.8 20:37:24 10° SW 20:42:05 87° NW 20:47:14 10° NE
SeaSat 1 3.6 20:37:53 10° S 20:42:31 41° WSW 20:47:11 10° NW
Cosmos 1125 Rocket 4.3 20:38:27 10° SW 20:43:31 53° WNW 20:48:39 10° N
Geosat 3.9 20:39:22 10° NNE 20:44:25 77° ESE 20:49:26 10° SSW
Cosmos 1733 3.1 20:40:43 10° S 20:44:34 88° E 20:48:29 10° N
Spot 1 4.4 20:40:03 10° SSE 20:44:45 85° WSW 20:49:45 10° NNW
ERS-1 Rocket 3.7 20:43:15 29° ESE 20:44:47 35° ENE 20:49:20 10° N
Cosmos 1470 2.8 20:42:12 10° S 20:46:12 84° W 20:50:11 10° N
Cosmos 1766 Rocket 4.0 20:42:07 10° NNW 20:46:34 63° W 20:50:59 10° S
GPS 2-05 Rocket1 4.1 20:45:01 10° WSW 20:48:05 27° S 20:48:14 27° S
Cosmos-2242 3.1 20:44:38 10° SSW 20:48:53 77° W 20:53:09 10° N
H-2A R/B 4.0 20:50:23 14° ENE 20:50:23 14° ENE 20:52:50 10° NNE
GP-B 3.4 20:47:43 10° S 20:52:07 67° W 20:56:33 10° N
Cosmos 1356 Rocket 3.5 20:49:49 10° N 20:53:49 48° ENE 20:54:14 46° E
Cosmos 2016 Rocket 3.9 20:50:24 10° S 20:56:31 64° E 21:02:36 10° NNE
USA 186 3.1 20:58:05 23° WSW 20:58:25 24° W 21:00:18 10° NW
BREEZE-M DEB (TANK) 4.0 20:56:35 10° W 20:59:55 63° NNW 21:10:45 10° ENE
Cosmos 1340 Rocket 3.1 20:56:08 10° NNW 21:00:08 65° W 21:02:27 23° S
Resurs 01 Rocket 3.7 20:57:41 10° SSW 21:01:26 27° W 21:05:13 10° NW
CZ-4B DEB 3.1 21:01:09 49° SSW 21:01:43 61° W 21:04:48 10° NNW
Cosmos 1725 Rocket 4.1 21:02:51 26° SSE 21:06:11 52° E 21:12:10 10° NNE
Cosmos 2082 Rocket 3.5 21:03:52 10° NW 21:09:03 37° WSW 21:14:11 10° S
ISS -3.0 21:09:27 10° WSW 21:12:37 49° NNW 21:12:44 48° NNW
Meteor 1-29 3.8 21:09:51 10° N 21:13:15 50° WNW 21:16:37 10° SSW
ARGOS 3.9 21:13:46 33° ENE 21:13:46 33° ENE 21:18:27 10° N
Cosmos 2100 Rocket 4.5 21:09:13 10° SSW 21:15:28 62° W 21:21:48 10° N
Cosmos 1743 Rocket 4.0 21:13:19 10° NNW 21:17:43 62° W 21:19:40 31° SSW
Cosmos 1500 Rocket 3.4 21:14:25 10° N 21:18:44 84° W 21:19:25 63° S
SL-08 R/B 4.4 21:12:42 10° S 21:19:04 81° E 21:25:31 10° N
Meteor 1-11 4.1 21:14:36 10° N 21:20:13 78° E 21:21:50 48° SSE
Meteor 1-16 Rocket 4.2 21:15:43 10° S 21:21:35 90° S 21:27:34 10° N
SL-14 R/B 3.3 21:19:02 10° NNW 21:22:48 75° WNW 21:22:48 75° WNW
YAOGAN 6 3.3 21:24:20 50° N 21:24:20 50° N 21:27:12 10° N
CZ-3B DEB 4.0 21:17:23 10° W 21:24:06 27° NNW 21:27:42 11° NNE
Cosmos 2058 3.4 21:22:07 10° N 21:25:21 49° NNE 21:25:21 49° NNE
Cosmos 2251 Rocket 3.6 21:21:56 10° NNW 21:27:17 77° WSW 21:28:41 50° S
Tsikada Rocket 3.9 21:21:14 10° N 21:27:28 74° E 21:29:09 50° SSE
Cosmos 1328 4.4 21:26:12 10° NNW 21:30:04 53° W 21:30:24 51° WSW
SPOT 1/Viking Rocket 4.5 21:34:49 35° NE 21:34:49 35° NE 21:38:41 10° N
USA 215 3.1 21:27:39 10° NE 21:34:10 70° SE 21:40:40 10° SW
Lacrosse 5 4.3 21:34:51 10° WNW 21:38:24 19° NNW 21:41:58 10° NNE
Cosmos 2151 3.4 21:38:12 10° NNW 21:42:00 58° WNW 21:42:00 58° WNW
SPOT 5 3.2 21:42:54 62° NE 21:42:54 62° NE 21:47:45 10° N
Cosmos 1939 Rocket 4.4 21:42:56 29° SW 21:43:53 33° W 21:47:41 10° NNW
Meteor 2-1 Rocket 4.1 21:43:32 75° SSE 21:44:00 83° E 21:49:42 10° NNE
Terra 3.9 21:52:12 17° NNE 21:52:12 17° NNE 21:53:43 10° NNE
Lacrosse 5 rocket 3.6 21:52:17 10° WNW 21:54:09 17° WSW 21:54:09 17° WSW
Cosmos 1816 Rocket 4.4 21:50:22 10° N 21:56:35 81° W 21:57:23 68° SSW
Cosmos 1626 4.4 21:53:33 10° N 21:54:52 21° N 21:54:52 21° N
Cosmos 2369 Rocket 2.8 22:01:47 46° NNE 22:01:47 46° NNE 22:05:39 10° NNE
MetOp-B 4.3 22:02:48 71° WNW 22:02:48 71° WNW 22:07:51 10° NNW
USA 267 3.6 22:06:11 48° NE 22:06:54 50° NNE 22:13:10 10° NW
USA 245 4.4 22:09:51 77° NW 22:09:51 77° NW 22:15:50 10° NNW
Cosmos 2233 Rocket 3.9 22:10:13 80° WNW 22:10:13 80° WNW 22:16:19 10° N
Cosmos 1943 Rocket 4.3 22:28:51 16° NNE 22:28:51 16° NNE 22:29:52 10° NNE
H-2A R/B 3.2 22:31:00 41° NNW 22:31:00 41° NNW 22:34:21 10° NNW
CZ-3 Stage 3 4.4 22:26:02 10° W 22:38:06 25° SW 22:38:06 25° SW
CZ-4C R/B 4.1 22:48:37 23° NNE 22:48:37 23° NNE 22:51:02 10° NNE
USA 215 4.2 23:10:52 10° NE 23:16:57 43° NNW 23:23:02 10° W
Cosmos 2297 Rocket 4.5 23:28:58 10° N 23:30:44 18° N 23:30:44 18° N
